Location: Laan Hart van Zuid
(52.2563°N, 6.7904°E)
Time: 10:27:15
(UTC+02:00)

ISS - Pass Details

Date: 17 May 2024
Orbit: 411 x 419 km, 51.6° (Epoch: 29 May)

Event Time Altitude Azimuth Distance (km) Brightness Sun altitude
Rises 00:51:50 0° 281° (W) 2,372 0.3 -17.9°
Reaches altitude 10° 00:53:59 10° 276° (W) 1,504 -0.8 -17.9°
Enters shadow 00:56:43 42° 232° (SW) 611 -3.2 -18.0°
